Regional Weather Roundup
Issued by NWS Kansas City/Pleasant Hill, MO

Home | Current Version | Previous Version | Graphics & Text | Print | Product List | Glossary Off
Versions: 1 2 3 4 5 6 7 8 9 10 11 12 13 14 15 16 17 18 19 20 21 22 23 24 25 26 27 28 29 30 31 32 33 34 35 36 37 38 39 40 41 42 43 44 45 46 47 48 49

000
ASUS43 KEAX 020910
RWREAX

WEATHER ROUNDUP FOR EASTERN KANSAS AND NORTHWEST MISSOURI
NATIONAL WEATHER SERVICE KANSAS CITY/PLEASANT HILL MO
400 AM CDT WED SEP 02 2015

KSZ040-057-103>105-MOZ028-029-037-043-021000-
...KANSAS CITY METROPOLITAN AREA...

CITY           SKY/WX    TMP DP  RH WIND       PRES   REMARKS
K.C. INTL      PTCLDY    72  65  78 S8        29.99R
K.C. DOWNTOWN  CLEAR     76  65  68 SW8       29.98R
LEES SUMMIT    CLEAR     72  64  76 S8        30.01R
OLATHE - IXD   CLEAR     71  66  84 S8        30.00S
OLATHE - OJC   CLEAR     70  65  84 S6        29.99S
LAWRENCE       CLEAR     72  66  81 SE8       29.98R

$$

MOZ001>008-011>017-020>025-030>033-038>040-044>046-053-054-021000-
...NORTHERN AND CENTRAL MISSOURI...

CITY           SKY/WX    TMP DP  RH WIND       PRES   REMARKS
ST. JOSEPH     LGT RAIN  72  69  90 N6        29.98R
MOSBY          MOSUNNY   68  64  88 SE3       29.99S
WHITEMAN AFB   CLEAR     70  68  92 S7        30.01R
CLINTON        CLEAR     72  70  94 S7        30.03R
SEDALIA        CLEAR     71  67  87 S8        30.04R
WARSAW         NOT AVBL
CHILLICOTHE      N/A     68  66  93 CALM      30.02R
KIRKSVILLE     PTCLDY    71  67  87 S6        30.03R

$$

MOZ041-047>049-056>058-063>065-088>090-097-021000-
...EASTERN AND SOUTHERN MISSOURI...

CITY           SKY/WX    TMP DP  RH WIND       PRES   REMARKS
ST. LOUIS INTL CLEAR     76  68  76 S3        30.07R
SPIRIT OF STL  CLEAR     73  70  90 CALM      30.05S
COLUMBIA       CLEAR     71  69  93 S7        30.05R
JEFFERSON CITY CLEAR     73  69  87 E3        30.05R
ROLLA          CLEAR     72  68  87 S8        30.07S
OSAGE BEACH    CLEAR     72  66  83 S5        30.06S
SPRINGFIELD    CLEAR     71  65  81 S10       30.07S
BRANSON        PTCLDY    70  64  83 CALM      30.10S
JOPLIN         CLEAR     72  66  81 S10       30.04S
WEST PLAINS    CLEAR     70  66  87 CALM      30.11S

$$

IAZ060-094-KSZ022-034>040-054-083-096-NEZ052-066-093-021000-
...KANSAS...SOUTHEAST NEBRASKA AND IOWA...

CITY           SKY/WX    TMP DP  RH WIND       PRES   REMARKS
TOPEKA         PTCLDY    75  67  76 S5        29.95F
MANHATTAN      PTCLDY    77  66  68 SW9       29.93S
EMPORIA        CLEAR     72  67  84 S15       29.97S
CHANUTE        CLEAR     70  67  90 S7        30.01S
WICHITA        MOCLDY    75  63  66 S12       29.98S
OMAHA          MOCLDY    76  68  76 SE14      29.90R
LINCOLN        CLEAR     75  68  78 S12       29.89S
FALLS CITY     MOCLDY    74  69  85 SE10      29.93S
LAMONI         CLOUDY    72  67  84 SW6       30.01S
DES MOINES     TSTM      74  68  81 SW14      29.98R

$$



USA.gov is the U.S. government's official web portal to all federal, state and local government web resources and services.